Wetbulb
24.56 24.82 24.52 24.77 24.51 24.80 25.84 27.26 28.51 28.59 29.44 30.35 31.51 32.54 34.78 36.50 36.99 38.54 39.45 40.77 43.69 46.25
22.87 23.59 23.89 24.07 24.29 24.83 26.10 27.22 27.08 27.54 27.73 28.88 30.17 31.24 32.42 34.52 35.26 36.36 37.57 38.84 41.20 43.38
22.58 23.03 23.42 23.90 23.52 23.90 24.45 25.61 25.47 26.05 26.79 27.29 28.29 29.53 30.59 32.11 34.40 34.83 36.34 37.56 38.07 39.69
22.18 22.89 23.27 23.29 23.10 23.17 24.10 24.05 24.26 24.92 25.45 25.87 26.57 27.89 28.48 29.59 31.32 32.68 33.93 35.37 36.26 37.51
22.61 22.36 21.82 22.10 22.63 23.20 22.16 23.65 23.43 23.66 23.86 24.92 25.61 26.52 26.89 27.82 29.42 30.34 32.10 33.69 34.73 36.20
21.92 21.18 20.30 20.66 21.45 22.08 21.75 21.79 22.03 22.63 22.85 23.27 24.71 25.14 26.24 26.91 27.83 29.36 31.33 33.12 34.32 34.81
19.15 19.82 19.32 19.68 20.47 21.29 21.26 20.65 20.64 21.60 22.24 23.41 23.35 24.55 25.45 27.01 27.89 28.65 30.23 32.31 33.83 34.90
17.88 18.62 18.72 19.30 20.06 20.72 20.89 20.23 20.44 20.85 21.27 21.92 22.67 24.67 25.70 27.17 27.75 29.07 29.35 30.67 32.50 34.27
12.16 16.22 18.10 18.59 19.15 19.39 19.19 19.16 19.50 19.32 19.61 20.10 22.53 26.41 28.73 29.31 28.32 29.13 29.36 28.70 29.67 31.43
8.69 10.93 14.98 17.08 17.75 17.57 17.22 17.36 17.45 17.90 18.63 19.06 20.35 26.13 28.66 29.93 28.03 28.09 28.58 28.43 28.86 29.84
7.10 6.73 10.24 14.32 15.56 15.65 15.92 15.56 15.91 16.90 17.96 18.72 20.84 25.99 27.69 29.15 27.18 26.25 27.08 28.71 29.12 29.51
5.99 5.19 4.90 8.97 10.60 12.97 13.50 14.44 15.36 17.16 17.86 18.50 19.48 24.70 26.91 27.20 25.28 26.07 26.53 28.10 29.19 30.93
4.81 5.11 4.15 4.24 4.64 9.37 12.54 15.07 17.22 17.88 18.52 20.39 19.60 23.83 25.89 26.47 25.13 24.34 25.20 26.89 28.85 31.40
2.57 2.64 0.61 -2.20 -2.05 4.72 10.32 13.87 14.05 15.78 16.70 17.53 19.72 20.58 25.85 26.93 24.76 24.13 24.51 25.79 26.24 27.80
MSLP
1031.06 1031.21 1031.21 1031.24 1031.03 1030.83 1030.54 1030.13 1029.78 1029.53 1028.98 1028.47 1027.98 1027.77 1027.34 1026.90 1026.42 1025.58 1025.29 1024.47 1024.07 1023.12
1030.93 1031.06 1031.14 1031.08 1030.97 1030.93 1030.76 1030.37 1029.98 1029.52 1029.15 1028.82 1028.47 1027.84 1027.42 1026.68 1026.43 1026.17 1024.99 1024.98 1024.26 1023.37
1030.68 1030.85 1030.88 1030.88 1030.89 1030.80 1030.61 1030.39 1030.08 1029.68 1029.26 1028.75 1028.40 1027.84 1027.17 1026.74 1026.18 1025.62 1025.21 1024.80 1024.36 1023.52
1030.50 1030.54 1030.61 1030.57 1030.56 1030.52 1030.47 1030.36 1030.17 1029.78 1029.27 1028.74 1028.36 1027.93 1027.56 1027.20 1026.16 1025.48 1025.33 1024.97 1024.61 1023.77
1030.37 1030.34 1030.31 1030.34 1030.34 1030.35 1030.33 1030.27 1030.17 1029.73 1029.27 1028.85 1028.39 1027.87 1027.39 1027.05 1026.53 1025.97 1025.09 1024.73 1024.21 1023.47
1029.96 1030.12 1030.20 1030.29 1030.31 1030.25 1030.17 1030.02 1029.93 1029.68 1029.41 1028.79 1028.28 1027.77 1027.24 1026.79 1026.32 1025.86 1025.41 1024.97 1024.27 1024.02
1029.59 1029.86 1030.03 1030.13 1030.12 1030.04 1030.01 1029.98 1029.87 1029.56 1029.23 1028.80 1028.32 1027.63 1027.02 1026.42 1025.91 1025.47 1025.12 1024.61 1024.05 1023.48
1029.12 1029.53 1029.77 1029.88 1029.89 1029.76 1029.76 1029.70 1029.75 1029.43 1028.95 1028.61 1028.08 1027.26 1026.57 1025.97 1025.59 1024.89 1024.41 1024.12 1023.61 1022.78
1028.85 1029.23 1029.36 1029.45 1029.50 1029.49 1029.38 1029.32 1029.30 1029.13 1028.71 1028.31 1027.66 1026.83 1026.21 1025.41 1025.02 1024.43 1023.88 1023.28 1022.89 1022.38
1028.51 1028.93 1029.02 1029.21 1029.22 1029.11 1029.07 1028.95 1028.90 1028.70 1028.24 1027.76 1027.29 1026.45 1025.70 1024.91 1024.53 1024.02 1023.64 1023.32 1022.45 1021.58
1028.38 1028.81 1028.92 1028.94 1028.85 1028.81 1028.75 1028.67 1028.45 1028.06 1027.69 1027.31 1026.69 1025.84 1025.27 1024.54 1024.05 1023.65 1023.14 1022.87 1022.11 1021.32
1027.64 1028.44 1028.93 1029.07 1029.01 1028.68 1028.49 1028.37 1028.07 1027.54 1027.11 1026.73 1026.21 1025.51 1024.86 1024.08 1023.55 1023.06 1022.47 1022.20 1021.35 1020.80
1026.97 1027.66 1028.28 1028.44 1028.59 1028.50 1028.35 1028.00 1027.46 1026.84 1026.42 1026.01 1025.60 1025.05 1024.37 1023.74 1023.25 1022.50 1021.93 1021.30 1020.62 1020.19
1026.82 1027.53 1027.98 1028.16 1028.16 1028.26 1028.17 1027.66 1027.30 1026.62 1025.87 1025.47 1025.16 1024.63 1023.79 1023.19 1022.72 1022.25 1021.40 1020.51 1020.02 1019.60
Wind_Speed
1 1 2 3 3 3 3 5 6 8 8 9 8 8 8 5 7 9 9 10 9 8
1 1 3 4 3 3 3 6 8 8 8 8 9 9 9 6 7 9 8 10 10 8
3 2 2 3 4 4 4 5 6 7 8 9 9 9 10 8 7 7 7 8 12 10
4 3 2 2 3 3 4 5 6 7 8 8 9 9 9 9 11 9 9 9 10 12
4 4 3 3 3 3 4 4 6 7 7 8 8 9 9 10 10 11 12 10 11 13
5 4 4 4 3 3 4 4 6 7 7 8 8 9 9 10 11 10 11 11 11 12
6 5 4 3 4 4 4 5 6 6 7 8 9 9 9 9 11 11 11 12 12 11
6 5 4 4 4 4 4 5 6 8 8 8 8 7 8 9 11 12 14 13 12 11
6 5 6 5 5 4 5 4 6 7 8 9 8 15 17 14 10 11 13 15 13 12
7 6 6 5 5 5 4 5 7 8 8 9 9 18 19 19 10 11 11 14 15 13
6 6 4 4 5 4 4 5 7 8 9 9 10 18 20 20 11 10 11 13 14 15
8 7 5 5 5 4 5 6 7 9 9 9 11 19 20 18 11 11 11 11 12 13
7 7 7 7 5 4 3 8 8 10 8 12 12 18 20 17 9 11 10 10 11 17
5 5 4 4 3 3 5 7 8 10 9 10 12 12 19 20 10 9 10 9 9 9
Wind_Direction
29 344 333 337 338 336 332 331 327 337 336 333 334 330 322 318 322 321 315 318 306 304
244 334 329 333 337 324 322 333 339 329 329 332 327 326 323 325 313 314 322 308 303 296
217 240 279 313 327 334 324 326 328 328 327 328 328 328 328 320 313 313 315 317 316 314
235 244 268 296 320 327 324 325 322 322 323 325 325 327 325 316 311 318 307 309 306 308
218 237 272 288 300 307 306 308 312 316 318 317 319 318 317 314 316 312 309 304 306 307
215 217 234 261 280 290 294 303 309 313 309 312 311 313 311 309 308 306 308 303 298 300
202 210 221 249 274 290 294 297 298 298 296 298 303 303 299 303 309 304 298 297 295 288
190 195 221 245 255 271 282 289 292 297 298 296 296 293 304 306 301 301 306 300 293 294
184 196 212 228 245 259 274 279 290 288 291 295 297 302 306 307 300 306 308 305 301 298
183 200 204 223 241 262 275 289 283 284 286 285 288 300 305 310 303 300 302 300 302 303
178 198 206 216 235 248 262 272 280 285 287 286 287 299 306 306 305 300 288 291 297 297
173 184 194 219 236 254 266 272 271 276 277 281 287 296 299 307 300 292 292 290 290 289
172 183 194 204 221 235 237 273 280 282 279 281 288 293 300 299 292 294 294 293 296 302
160 177 199 207 199 241 262 266 272 278 286 283 278 278 286 294 291 289 286 290 297 294